START_TIME,STEP,MOV.,AL01,t_acc.,AL02,t_acc.,E37,t_acc.,H21,t_acc.
1981-08-25 12:00:35.270 ,2,0,0.,24.0,0.,24.0,0.,24.0,0.,24.0
1981-08-25 12:00:59.270 ,3,1,0.,24.0,0.,24.0,0.,24.0,0.,24.0
1981-08-25 12:01:23.270 ,3,0,0.,24.0,0.,24.0,0.,24.0,0.,24.0
1981-08-25 12:01:47.270 ,4,1,0.,24.0,0.,24.0,0.,24.0,0.,24.0
1981-08-25 12:02:11.270 ,4,0,1.,24.0,0.,24.0,0.,24.0,0.,24.0
1981-08-25 12:02:35.270 ,5,1,0.,24.0,0.,24.0,0.,24.0,0.,24.0
1981-08-25 12:02:59.270 ,5,0,0.,24.0,0.,24.0,0.,24.0,0.,24.0
1981-08-25 12:03:23.270 ,6,1,0.,24.0,0.,24.0,0.,24.0,0.,24.0
1981-08-25 12:03:47.270 ,6,0,0.,24.0,0.,24.0,0.,24.0,0.,24.0
1981-08-25 12:04:11.270 ,7,1,10.,24.0,0.,24.0,0.,24.0,0.,24.0
1981-08-25 12:04:35.270 ,7,0,26.,24.0,0.,24.0,0.,24.0,0.,24.0
1981-08-25 12:04:59.270 ,7,1,24.,24.0,0.,24.0,0.,24.0,0.,24.0
1981-08-25 12:05:23.270 ,7,0,22.,24.0,0.,24.0,0.,24.0,0.,24.0
1981-08-25 12:05:47.270 ,6,1,22.,24.0,1.,24.0,0.,24.0,0.,24.0
1981-08-25 12:06:11.270 ,6,0,0.,24.0,0.,24.0,0.,24.0,0.,24.0
1981-08-25 12:06:35.270 ,5,1,0.,24.0,0.,24.0,0.,24.0,0.,24.0
1981-08-25 12:06:59.270 ,5,0,1.,24.0,0.,24.0,0.,24.0,0.,24.0
1981-08-25 12:07:23.270 ,4,1,0.,24.0,0.,24.0,0.,24.0,0.,24.0
1981-08-25 12:07:47.270 ,4,0,0.,24.0,0.,24.0,0.,24.0,0.,24.0
1981-08-25 12:08:11.270 ,3,1,0.,24.0,0.,24.0,0.,24.0,0.,24.0
1981-08-25 12:08:35.270 ,3,0,0.,24.0,0.,24.0,0.,24.0,0.,24.0
1981-08-25 12:08:59.270 ,2,1,1.,24.0,0.,24.0,0.,24.0,0.,24.0
1981-08-25 12:09:23.270 ,2,0,0.,24.0,0.,24.0,0.,24.0,0.,24.0
1981-08-25 12:09:47.270 ,1,1,0.,24.0,0.,24.0,0.,24.0,0.,24.0
1981-08-25 12:10:11.270 ,1,0,0.,24.0,0.,24.0,0.,24.0,0.,24.0
1981-08-25 12:10:35.270 ,0,1,0.,24.0,0.,24.0,0.,24.0,0.,24.0
1981-08-25 12:10:59.270 ,0,0,0.,24.0,0.,24.0,0.,24.0,0.,24.0
1981-08-25 12:11:23.270 ,0,1,0.,24.0,0.,24.0,0.,24.0,0.,24.0
1981-08-25 12:11:47.270 ,0,0,1.,24.0,0.,24.0,0.,24.0,0.,24.0
1981-08-25 12:12:11.270 ,1,1,0.,24.0,0.,24.0,0.,24.0,0.,24.0
1981-08-25 12:12:35.270 ,1,0,0.,24.0,0.,24.0,0.,24.0,0.,24.0
1981-08-25 12:12:59.270 ,2,1,0.,24.0,0.,24.0,0.,24.0,0.,24.0
1981-08-25 12:13:23.270 ,2,0,0.,24.0,0.,24.0,0.,24.0,0.,24.0
1981-08-25 12:13:47.270 ,3,1,0.,24.0,0.,24.0,0.,24.0,0.,24.0
1981-08-25 12:14:11.270 ,3,0,0.,24.0,0.,24.0,0.,24.0,0.,24.0
1981-08-25 12:14:35.270 ,4,1,0.,24.0,0.,24.0,0.,24.0,0.,24.0
1981-08-25 12:14:59.270 ,4,0,0.,24.0,0.,24.0,0.,24.0,0.,24.0
1981-08-25 12:15:23.270 ,5,1,0.,24.0,0.,24.0,0.,24.0,0.,24.0
1981-08-25 12:15:47.270 ,5,0,0.,24.0,0.,24.0,0.,24.0,0.,24.0
1981-08-25 12:16:11.270 ,6,1,0.,24.0,0.,24.0,0.,24.0,0.,24.0
1981-08-25 12:16:35.270 ,6,0,0.,24.0,0.,24.0,0.,24.0,0.,24.0
1981-08-25 12:16:59.270 ,7,1,10.,24.0,0.,24.0,0.,24.0,0.,24.0
1981-08-25 12:17:23.270 ,7,0,34.,24.0,0.,24.0,0.,24.0,0.,24.0
1981-08-25 12:17:47.270 ,7,1,29.,24.0,0.,24.0,0.,24.0,0.,24.0
1981-08-25 12:18:11.270 ,7,0,26.,24.0,0.,24.0,0.,24.0,0.,24.0
1981-08-25 12:18:35.270 ,6,1,19.,24.0,0.,24.0,0.,24.0,0.,24.0
1981-08-25 12:18:59.270 ,6,0,0.,24.0,0.,24.0,0.,24.0,0.,24.0
1981-08-25 12:19:23.270 ,5,1,0.,24.0,0.,24.0,0.,24.0,0.,24.0
1981-08-25 12:19:47.270 ,5,0,0.,24.0,0.,24.0,0.,24.0,0.,24.0
1981-08-25 12:20:11.270 ,4,1,0.,24.0,0.,24.0,0.,24.0,0.,24.0
1981-08-25 12:20:35.270 ,4,0,0.,24.0,0.,24.0,0.,24.0,0.,24.0
1981-08-25 12:20:59.270 ,3,1,0.,24.0,0.,24.0,0.,24.0,0.,24.0
1981-08-25 12:21:23.270 ,3,0,0.,24.0,1.,24.0,0.,24.0,0.,24.0
1981-08-25 12:21:47.270 ,2,1,0.,24.0,0.,24.0,0.,24.0,0.,24.0
1981-08-25 12:22:11.270 ,2,0,0.,24.0,0.,24.0,0.,24.0,0.,24.0
1981-08-25 12:22:35.270 ,1,1,0.,24.0,0.,24.0,0.,24.0,0.,24.0
1981-08-25 12:22:59.270 ,1,0,0.,24.0,0.,24.0,0.,24.0,0.,24.0
1981-08-25 12:23:23.270 ,0,1,0.,24.0,0.,24.0,0.,24.0,0.,24.0
1981-08-25 12:23:47.270 ,0,0,0.,24.0,0.,24.0,0.,24.0,0.,24.0
1981-08-25 12:24:11.270 ,0,1,0.,24.0,0.,24.0,0.,24.0,0.,24.0
1981-08-25 12:24:35.270 ,0,0,0.,24.0,0.,24.0,0.,24.0,0.,24.0
1981-08-25 12:24:59.270 ,1,1,0.,24.0,0.,24.0,0.,24.0,0.,24.0
1981-08-25 12:25:23.270 ,1,0,0.,24.0,0.,24.0,0.,24.0,0.,24.0
1981-08-25 12:25:47.270 ,2,1,0.,24.0,0.,24.0,0.,24.0,0.,24.0
1981-08-25 12:26:11.270 ,2,0,0.,24.0,0.,24.0,0.,24.0,0.,24.0
1981-08-25 12:26:35.270 ,3,1,0.,24.0,0.,24.0,0.,24.0,0.,24.0
1981-08-25 12:26:59.270 ,3,0,1.,24.0,0.,24.0,0.,24.0,0.,24.0
1981-08-25 12:27:23.270 ,4,1,0.,24.0,0.,24.0,0.,24.0,0.,24.0
1981-08-25 12:27:47.270 ,4,0,0.,24.0,0.,24.0,0.,24.0,0.,24.0
1981-08-25 12:28:11.270 ,5,1,0.,24.0,0.,24.0,0.,24.0,0.,24.0
1981-08-25 12:28:35.270 ,5,0,0.,24.0,0.,24.0,0.,24.0,0.,24.0
1981-08-25 12:28:59.270 ,6,1,0.,24.0,0.,24.0,0.,24.0,0.,24.0
1981-08-25 12:29:23.270 ,6,0,0.,24.0,0.,24.0,0.,24.0,0.,24.0
1981-08-25 12:29:47.270 ,7,1,10.,24.0,0.,24.0,0.,24.0,0.,24.0
1981-08-25 12:30:11.270 ,7,0,26.,24.0,0.,24.0,0.,24.0,0.,24.0
1981-08-25 12:30:35.270 ,7,1,27.,24.0,0.,24.0,0.,24.0,0.,24.0
1981-08-25 12:30:59.270 ,7,0,29.,24.0,0.,24.0,0.,24.0,0.,24.0
1981-08-25 12:31:23.270 ,6,1,19.,24.0,0.,24.0,0.,24.0,0.,24.0
1981-08-25 12:31:47.270 ,6,0,0.,24.0,0.,24.0,0.,24.0,0.,24.0
1981-08-25 12:32:11.270 ,5,1,1.,24.0,0.,24.0,0.,24.0,0.,24.0
1981-08-25 12:32:35.270 ,5,0,0.,24.0,0.,24.0,0.,24.0,0.,24.0
1981-08-25 12:32:59.270 ,4,1,0.,24.0,0.,24.0,0.,24.0,0.,24.0
1981-08-25 12:33:23.270 ,4,0,0.,24.0,0.,24.0,0.,24.0,0.,24.0
1981-08-25 12:33:47.270 ,3,1,0.,24.0,0.,24.0,0.,24.0,0.,24.0
1981-08-25 12:34:11.270 ,3,0,0.,24.0,0.,24.0,0.,24.0,0.,24.0
1981-08-25 12:34:35.270 ,2,1,0.,24.0,0.,24.0,0.,24.0,0.,24.0
1981-08-25 12:34:59.270 ,2,0,0.,24.0,0.,24.0,0.,24.0,0.,24.0
1981-08-25 12:35:23.270 ,1,1,0.,24.0,0.,24.0,0.,24.0,0.,24.0
1981-08-25 12:35:47.270 ,1,0,0.,24.0,0.,24.0,0.,24.0,0.,24.0
1981-08-25 12:36:11.270 ,0,1,0.,24.0,0.,24.0,0.,24.0,0.,24.0
1981-08-25 12:36:35.270 ,0,0,1.,24.0,0.,24.0,0.,24.0,0.,24.0
1981-08-25 12:36:59.270 ,0,1,0.,24.0,0.,24.0,0.,24.0,0.,24.0
1981-08-25 12:37:23.270 ,0,0,0.,24.0,0.,24.0,0.,24.0,0.,24.0
1981-08-25 12:37:47.270 ,1,1,0.,24.0,0.,24.0,0.,24.0,0.,24.0
1981-08-25 12:38:11.270 ,1,0,0.,24.0,0.,24.0,0.,24.0,0.,24.0
1981-08-25 12:38:35.270 ,2,1,0.,24.0,0.,24.0,0.,24.0,0.,24.0
1981-08-25 12:38:59.270 ,2,0,0.,24.0,0.,24.0,0.,24.0,0.,24.0
1981-08-25 12:39:23.270 ,3,1,0.,24.0,0.,24.0,0.,24.0,0.,24.0
1981-08-25 12:39:47.270 ,3,0,0.,24.0,0.,24.0,0.,24.0,0.,24.0
1981-08-25 12:40:11.270 ,4,1,0.,24.0,0.,24.0,0.,24.0,0.,24.0
1981-08-25 12:40:35.270 ,4,0,1.,24.0,0.,24.0,0.,24.0,0.,24.0
1981-08-25 12:40:59.270 ,5,1,0.,24.0,0.,24.0,0.,24.0,0.,24.0
1981-08-25 12:41:23.270 ,5,0,0.,24.0,0.,24.0,0.,24.0,0.,24.0
1981-08-25 12:41:47.270 ,6,1,0.,24.0,0.,24.0,0.,24.0,0.,24.0
1981-08-25 12:42:11.270 ,6,0,1.,24.0,0.,24.0,0.,24.0,0.,24.0
1981-08-25 12:42:35.270 ,7,1,5.,24.0,0.,24.0,0.,24.0,0.,24.0
1981-08-25 12:42:59.270 ,7,0,33.,24.0,0.,24.0,0.,24.0,0.,24.0
1981-08-25 12:43:23.270 ,7,1,33.,24.0,0.,24.0,0.,24.0,0.,24.0
1981-08-25 12:43:47.270 ,7,0,29.,24.0,1.,24.0,0.,24.0,0.,24.0
1981-08-25 12:44:11.270 ,6,1,30.,24.0,0.,24.0,0.,24.0,0.,24.0
1981-08-25 12:44:35.270 ,6,0,0.,24.0,0.,24.0,0.,24.0,0.,24.0
1981-08-25 12:44:59.270 ,5,1,0.,24.0,0.,24.0,0.,24.0,0.,24.0
1981-08-25 12:45:23.270 ,5,0,0.,24.0,0.,24.0,0.,24.0,0.,24.0
1981-08-25 12:45:47.270 ,4,1,0.,24.0,0.,24.0,0.,24.0,0.,24.0
1981-08-25 12:46:11.270 ,4,0,0.,24.0,0.,24.0,0.,24.0,0.,24.0
1981-08-25 12:46:35.270 ,3,1,0.,24.0,0.,24.0,0.,24.0,0.,24.0
1981-08-25 12:46:59.270 ,3,0,0.,24.0,0.,24.0,0.,24.0,0.,24.0
1981-08-25 12:47:23.270 ,2,1,0.,24.0,0.,24.0,0.,24.0,0.,24.0
1981-08-25 12:47:47.270 ,2,0,0.,24.0,0.,24.0,0.,24.0,0.,24.0
1981-08-25 12:48:11.270 ,1,1,1.,24.0,0.,24.0,0.,24.0,0.,24.0
1981-08-25 12:48:35.270 ,1,0,0.,24.0,0.,24.0,0.,24.0,0.,24.0
1981-08-25 12:48:59.270 ,0,1,0.,24.0,0.,24.0,0.,24.0,0.,24.0
1981-08-25 12:49:23.270 ,0,0,0.,24.0,0.,24.0,0.,24.0,0.,24.0
1981-08-25 12:49:47.270 ,0,1,0.,24.0,0.,24.0,0.,24.0,0.,24.0
1981-08-25 12:50:11.270 ,0,0,1.,24.0,0.,24.0,0.,24.0,0.,24.0
1981-08-25 12:50:35.270 ,1,1,0.,24.0,0.,24.0,0.,24.0,0.,24.0
1981-08-25 12:50:59.270 ,1,0,0.,24.0,0.,24.0,0.,24.0,0.,24.0
1981-08-25 12:51:23.270 ,2,1,0.,24.0,0.,24.0,0.,24.0,0.,24.0
1981-08-25 12:51:47.270 ,2,0,0.,24.0,0.,24.0,0.,24.0,0.,24.0
1981-08-25 12:52:11.270 ,3,1,0.,24.0,0.,24.0,0.,24.0,0.,24.0
1981-08-25 12:52:35.270 ,3,0,0.,24.0,0.,24.0,0.,24.0,0.,24.0
1981-08-25 12:52:59.270 ,4,1,0.,24.0,0.,24.0,0.,24.0,0.,24.0
1981-08-25 12:53:23.270 ,4,0,0.,24.0,0.,24.0,0.,24.0,0.,24.0
1981-08-25 12:53:47.260 ,5,1,0.,24.0,0.,24.0,0.,24.0,0.,24.0
1981-08-25 12:54:11.260 ,5,0,0.,24.0,0.,24.0,0.,24.0,0.,24.0
1981-08-25 12:54:35.260 ,6,1,0.,24.0,0.,24.0,0.,24.0,0.,24.0
1981-08-25 12:54:59.260 ,6,0,0.,24.0,0.,24.0,0.,24.0,0.,24.0
1981-08-25 12:55:23.260 ,7,1,9.,24.0,0.,24.0,0.,24.0,0.,24.0
1981-08-25 12:55:47.260 ,7,0,30.,24.0,0.,24.0,0.,24.0,0.,24.0
1981-08-25 12:56:11.260 ,7,1,25.,24.0,0.,24.0,0.,24.0,0.,24.0
1981-08-25 12:56:35.260 ,7,0,35.,24.0,0.,24.0,0.,24.0,0.,24.0
1981-08-25 12:56:59.260 ,6,1,28.,24.0,0.,24.0,0.,24.0,0.,24.0
1981-08-25 12:57:23.260 ,6,0,1.,24.0,0.,24.0,0.,24.0,0.,24.0
1981-08-25 12:57:47.260 ,5,1,1.,24.0,0.,24.0,0.,24.0,0.,24.0
1981-08-25 12:58:11.260 ,5,0,0.,24.0,1.,24.0,0.,24.0,0.,24.0
1981-08-25 12:58:35.260 ,4,1,0.,24.0,0.,24.0,0.,24.0,0.,24.0
1981-08-25 12:58:59.260 ,4,0,0.,24.0,0.,24.0,0.,24.0,0.,24.0
1981-08-25 12:59:23.260 ,3,1,0.,24.0,0.,24.0,0.,24.0,0.,24.0
1981-08-25 12:59:47.260 ,3,0,0.,24.0,1.,24.0,0.,24.0,0.,24.0
1981-08-25 13:00:11.260 ,2,1,0.,24.0,0.,24.0,0.,24.0,0.,24.0
1981-08-25 13:00:35.260 ,2,0,1.,24.0,0.,24.0,0.,24.0,0.,24.0
1981-08-25 13:00:59.260 ,1,1,0.,24.0,0.,24.0,0.,24.0,0.,24.0
1981-08-25 13:01:23.260 ,1,0,0.,24.0,0.,24.0,0.,24.0,0.,24.0
1981-08-25 13:01:47.260 ,0,1,0.,24.0,0.,24.0,0.,24.0,0.,24.0
1981-08-25 13:02:11.260 ,0,0,2.,24.0,0.,24.0,0.,24.0,0.,24.0
1981-08-25 13:02:35.260 ,0,1,1.,24.0,0.,24.0,0.,24.0,0.,24.0
1981-08-25 13:02:59.260 ,0,0,0.,24.0,0.,24.0,0.,24.0,0.,24.0
1981-08-25 13:03:23.260 ,1,1,0.,24.0,0.,24.0,0.,24.0,0.,24.0
1981-08-25 13:03:47.260 ,1,0,0.,24.0,0.,24.0,0.,24.0,0.,24.0
1981-08-25 13:04:11.260 ,2,1,0.,24.0,0.,24.0,0.,24.0,0.,24.0
1981-08-25 13:04:35.260 ,2,0,0.,24.0,0.,24.0,0.,24.0,0.,24.0
1981-08-25 13:04:59.260 ,3,1,0.,24.0,0.,24.0,0.,24.0,0.,24.0
1981-08-25 13:05:23.260 ,3,0,0.,24.0,0.,24.0,0.,24.0,0.,24.0
1981-08-25 13:05:47.260 ,4,1,1.,24.0,0.,24.0,0.,24.0,0.,24.0
1981-08-25 13:06:11.260 ,4,0,2.,24.0,0.,24.0,0.,24.0,0.,24.0
1981-08-25 13:06:35.260 ,5,1,0.,24.0,0.,24.0,0.,24.0,0.,24.0
1981-08-25 13:06:59.260 ,5,0,0.,24.0,0.,24.0,0.,24.0,0.,24.0
1981-08-25 13:07:23.260 ,6,1,0.,24.0,0.,24.0,0.,24.0,0.,24.0
1981-08-25 13:07:47.260 ,6,0,0.,24.0,0.,24.0,0.,24.0,0.,24.0
1981-08-25 13:08:11.260 ,7,1,7.,24.0,0.,24.0,0.,24.0,0.,24.0
1981-08-25 13:08:35.260 ,7,0,25.,24.0,0.,24.0,0.,24.0,0.,24.0
1981-08-25 13:08:59.260 ,7,1,34.,24.0,0.,24.0,0.,24.0,0.,24.0
1981-08-25 13:09:23.260 ,7,0,26.,24.0,0.,24.0,0.,24.0,0.,24.0
1981-08-25 13:09:47.260 ,6,1,28.,24.0,0.,24.0,0.,24.0,0.,24.0
1981-08-25 13:10:11.260 ,6,0,0.,24.0,0.,24.0,0.,24.0,0.,24.0
1981-08-25 13:10:35.260 ,5,1,0.,24.0,0.,24.0,0.,24.0,0.,24.0
1981-08-25 13:10:59.260 ,5,0,0.,24.0,0.,24.0,0.,24.0,0.,24.0
1981-08-25 13:11:23.260 ,4,1,0.,24.0,0.,24.0,0.,24.0,0.,24.0
1981-08-25 13:11:47.260 ,4,0,0.,24.0,0.,24.0,0.,24.0,0.,24.0
1981-08-25 13:12:11.260 ,3,1,0.,24.0,0.,24.0,0.,24.0,0.,24.0
1981-08-25 13:12:35.260 ,3,0,0.,24.0,0.,24.0,0.,24.0,0.,24.0
1981-08-25 13:12:59.260 ,2,1,0.,24.0,0.,24.0,0.,24.0,0.,24.0
1981-08-25 13:13:23.260 ,2,0,0.,24.0,0.,24.0,0.,24.0,0.,24.0
1981-08-25 13:13:47.260 ,1,1,0.,24.0,0.,24.0,0.,24.0,0.,24.0
1981-08-25 13:14:11.260 ,1,0,0.,24.0,0.,24.0,0.,24.0,0.,24.0
1981-08-25 13:14:35.260 ,0,1,0.,24.0,0.,24.0,0.,24.0,0.,24.0
1981-08-25 13:14:59.260 ,0,0,0.,24.0,0.,24.0,0.,24.0,0.,24.0
1981-08-25 13:15:23.260 ,0,1,0.,24.0,0.,24.0,0.,24.0,0.,24.0
1981-08-25 13:15:47.260 ,0,0,0.,24.0,0.,24.0,0.,24.0,0.,24.0
1981-08-25 13:16:11.260 ,1,1,0.,24.0,0.,24.0,0.,24.0,0.,24.0
1981-08-25 13:16:35.260 ,1,0,0.,24.0,0.,24.0,0.,24.0,0.,24.0
1981-08-25 13:16:59.260 ,2,1,0.,24.0,0.,24.0,0.,24.0,0.,24.0
1981-08-25 13:17:23.260 ,2,0,1.,24.0,0.,24.0,0.,24.0,0.,24.0
1981-08-25 13:17:47.260 ,3,1,0.,24.0,0.,24.0,0.,24.0,0.,24.0
1981-08-25 13:18:11.260 ,3,0,0.,24.0,1.,24.0,0.,24.0,0.,24.0
1981-08-25 13:18:35.260 ,4,1,0.,24.0,0.,24.0,0.,24.0,0.,24.0
1981-08-25 13:18:59.260 ,4,0,0.,24.0,0.,24.0,0.,24.0,0.,24.0
1981-08-25 13:19:23.260 ,5,1,0.,24.0,0.,24.0,0.,24.0,0.,24.0
1981-08-25 13:19:47.260 ,5,0,0.,24.0,0.,24.0,0.,24.0,0.,24.0
1981-08-25 13:20:11.260 ,6,1,0.,24.0,0.,24.0,0.,24.0,0.,24.0
1981-08-25 13:20:35.260 ,6,0,0.,24.0,0.,24.0,0.,24.0,0.,24.0
1981-08-25 13:20:59.260 ,7,1,5.,24.0,0.,24.0,0.,24.0,0.,24.0
1981-08-25 13:21:23.260 ,7,0,35.,24.0,0.,24.0,0.,24.0,0.,24.0
1981-08-25 13:21:47.260 ,7,1,30.,24.0,0.,24.0,0.,24.0,0.,24.0
1981-08-25 13:22:11.260 ,7,0,33.,24.0,0.,24.0,0.,24.0,0.,24.0
1981-08-25 13:22:35.260 ,6,1,25.,24.0,0.,24.0,0.,24.0,0.,24.0
1981-08-25 13:22:59.260 ,6,0,0.,24.0,0.,24.0,0.,24.0,0.,24.0
1981-08-25 13:23:23.260 ,5,1,0.,24.0,0.,24.0,0.,24.0,0.,24.0
1981-08-25 13:23:47.260 ,5,0,0.,24.0,0.,24.0,0.,24.0,0.,24.0
1981-08-25 13:24:11.260 ,4,1,1.,24.0,0.,24.0,0.,24.0,0.,24.0
1981-08-25 13:24:35.260 ,4,0,0.,24.0,0.,24.0,0.,24.0,0.,24.0
1981-08-25 13:24:59.260 ,3,1,0.,24.0,0.,24.0,0.,24.0,0.,24.0
1981-08-25 13:25:23.260 ,3,0,0.,24.0,0.,24.0,0.,24.0,0.,24.0
1981-08-25 13:25:47.260 ,2,1,0.,24.0,0.,24.0,0.,24.0,0.,24.0
1981-08-25 13:26:11.260 ,2,0,0.,24.0,0.,24.0,0.,24.0,0.,24.0
1981-08-25 13:26:35.260 ,1,1,0.,24.0,0.,24.0,0.,24.0,0.,24.0
1981-08-25 13:26:59.260 ,1,0,0.,24.0,0.,24.0,0.,24.0,0.,24.0
1981-08-25 13:27:23.260 ,0,1,0.,24.0,0.,24.0,0.,24.0,0.,24.0
1981-08-25 13:27:47.260 ,0,0,0.,24.0,0.,24.0,0.,24.0,0.,24.0
1981-08-25 13:28:11.260 ,0,1,0.,24.0,0.,24.0,0.,24.0,0.,24.0
1981-08-25 13:28:35.260 ,0,0,0.,24.0,0.,24.0,0.,24.0,0.,24.0
1981-08-25 13:28:59.260 ,1,1,0.,24.0,0.,24.0,0.,24.0,0.,24.0
1981-08-25 13:29:23.260 ,1,0,0.,24.0,0.,24.0,0.,24.0,0.,24.0
1981-08-25 13:29:47.260 ,2,1,0.,24.0,0.,24.0,0.,24.0,0.,24.0
1981-08-25 13:30:11.260 ,2,0,0.,24.0,0.,24.0,0.,24.0,0.,24.0
1981-08-25 13:30:35.260 ,3,1,0.,24.0,0.,24.0,0.,24.0,0.,24.0
1981-08-25 13:30:59.260 ,3,0,0.,24.0,0.,24.0,0.,24.0,0.,24.0
1981-08-25 13:31:23.260 ,4,1,0.,24.0,0.,24.0,0.,24.0,0.,24.0
1981-08-25 13:31:47.260 ,4,0,0.,24.0,0.,24.0,0.,24.0,0.,24.0
1981-08-25 13:32:11.260 ,5,1,0.,24.0,0.,24.0,0.,24.0,0.,24.0
1981-08-25 13:32:35.260 ,5,0,0.,24.0,0.,24.0,0.,24.0,0.,24.0
1981-08-25 13:32:59.260 ,6,1,0.,24.0,1.,24.0,0.,24.0,0.,24.0
1981-08-25 13:33:23.260 ,6,0,0.,24.0,0.,24.0,0.,24.0,0.,24.0
1981-08-25 13:33:47.260 ,7,1,6.,24.0,0.,24.0,0.,24.0,0.,24.0
1981-08-25 13:34:11.260 ,7,0,37.,24.0,0.,24.0,0.,24.0,0.,24.0
1981-08-25 13:34:35.260 ,7,1,31.,24.0,0.,24.0,0.,24.0,0.,24.0
1981-08-25 13:34:59.260 ,7,0,31.,24.0,0.,24.0,0.,24.0,0.,24.0
1981-08-25 13:35:23.260 ,6,1,27.,24.0,0.,24.0,0.,24.0,0.,24.0
1981-08-25 13:35:47.260 ,6,0,0.,24.0,0.,24.0,0.,24.0,0.,24.0
1981-08-25 13:36:11.260 ,5,1,0.,24.0,0.,24.0,0.,24.0,0.,24.0
1981-08-25 13:36:35.260 ,5,0,0.,24.0,0.,24.0,0.,24.0,0.,24.0
1981-08-25 13:36:59.260 ,4,1,0.,24.0,0.,24.0,0.,24.0,0.,24.0
1981-08-25 13:37:23.260 ,4,0,0.,24.0,0.,24.0,0.,24.0,0.,24.0
1981-08-25 13:37:47.260 ,3,1,0.,24.0,0.,24.0,0.,24.0,0.,24.0
1981-08-25 13:38:11.260 ,3,0,0.,24.0,0.,24.0,0.,24.0,0.,24.0
1981-08-25 13:38:35.260 ,2,1,0.,24.0,0.,24.0,0.,24.0,0.,24.0
1981-08-25 13:38:59.260 ,2,0,0.,24.0,0.,24.0,0.,24.0,0.,24.0
1981-08-25 13:39:23.260 ,1,1,0.,24.0,0.,24.0,0.,24.0,0.,24.0
1981-08-25 13:39:47.260 ,1,0,0.,24.0,0.,24.0,0.,24.0,0.,24.0
1981-08-25 13:40:11.260 ,0,1,0.,24.0,0.,24.0,0.,24.0,0.,24.0
1981-08-25 13:40:35.260 ,0,0,0.,24.0,0.,24.0,0.,24.0,0.,24.0
1981-08-25 13:40:59.260 ,0,1,0.,24.0,0.,24.0,0.,24.0,0.,24.0
1981-08-25 13:41:23.260 ,0,0,0.,24.0,0.,24.0,0.,24.0,0.,24.0
1981-08-25 13:41:47.260 ,1,1,0.,24.0,0.,24.0,0.,24.0,0.,24.0
1981-08-25 13:42:11.260 ,1,0,0.,24.0,0.,24.0,0.,24.0,0.,24.0
1981-08-25 13:42:35.260 ,2,1,0.,24.0,0.,24.0,0.,24.0,0.,24.0
1981-08-25 13:42:59.260 ,2,0,0.,24.0,0.,24.0,0.,24.0,0.,24.0
1981-08-25 13:43:23.260 ,3,1,0.,24.0,0.,24.0,0.,24.0,0.,24.0
1981-08-25 13:43:47.260 ,3,0,0.,24.0,0.,24.0,0.,24.0,0.,24.0
1981-08-25 13:44:11.260 ,4,1,0.,24.0,0.,24.0,0.,24.0,0.,24.0
1981-08-25 13:44:35.260 ,4,0,1.,24.0,0.,24.0,0.,24.0,0.,24.0
1981-08-25 13:44:59.260 ,5,1,0.,24.0,0.,24.0,0.,24.0,0.,24.0
1981-08-25 13:45:23.260 ,5,0,0.,24.0,0.,24.0,0.,24.0,0.,24.0
1981-08-25 13:45:47.260 ,6,1,0.,24.0,0.,24.0,0.,24.0,0.,24.0
1981-08-25 13:46:11.260 ,6,0,0.,24.0,0.,24.0,0.,24.0,0.,24.0
1981-08-25 13:46:35.260 ,7,1,5.,24.0,0.,24.0,0.,24.0,0.,24.0
1981-08-25 13:46:59.260 ,7,0,22.,24.0,0.,24.0,0.,24.0,0.,24.0
1981-08-25 13:47:23.260 ,7,1,31.,24.0,0.,24.0,0.,24.0,0.,24.0
1981-08-25 13:47:47.260 ,7,0,38.,24.0,0.,24.0,0.,24.0,0.,24.0
1981-08-25 13:48:11.260 ,6,1,21.,24.0,0.,24.0,0.,24.0,0.,24.0
1981-08-25 13:48:35.260 ,6,0,0.,24.0,0.,24.0,0.,24.0,0.,24.0
1981-08-25 13:48:59.260 ,5,1,0.,24.0,0.,24.0,0.,24.0,0.,24.0
1981-08-25 13:49:23.260 ,5,0,0.,24.0,0.,24.0,0.,24.0,0.,24.0
1981-08-25 13:49:47.260 ,4,1,0.,24.0,1.,24.0,0.,24.0,0.,24.0
1981-08-25 13:50:11.260 ,4,0,0.,24.0,0.,24.0,0.,24.0,0.,24.0
1981-08-25 13:51:23.260 ,0,0,0.,24.0,1.,24.0,0.,24.0,0.,24.0
1981-08-25 13:51:47.260 ,0,0,0.,24.0,0.,24.0,0.,24.0,0.,24.0
1981-08-25 13:52:11.260 ,1,1,0.,24.0,1.,24.0,0.,24.0,0.,24.0
1981-08-25 13:52:35.260 ,1,0,1.,24.0,0.,24.0,0.,24.0,0.,24.0
1981-08-25 13:52:59.260 ,0,1,0.,24.0,0.,24.0,0.,24.0,0.,24.0
1981-08-25 13:53:23.260 ,0,0,0.,24.0,0.,24.0,0.,24.0,0.,24.0
1981-08-25 13:53:47.260 ,0,1,0.,24.0,0.,24.0,0.,24.0,0.,24.0
1981-08-25 13:54:11.260 ,0,0,0.,24.0,0.,24.0,0.,24.0,0.,24.0
1981-08-25 13:54:35.260 ,1,1,0.,24.0,0.,24.0,0.,24.0,0.,24.0
1981-08-25 13:54:59.260 ,1,0,0.,24.0,0.,24.0,0.,24.0,0.,24.0
1981-08-25 13:55:23.260 ,2,1,0.,24.0,0.,24.0,0.,24.0,0.,24.0
1981-08-25 13:55:47.260 ,2,0,0.,24.0,1.,24.0,0.,24.0,0.,24.0
1981-08-25 13:56:11.260 ,3,1,1.,24.0,0.,24.0,0.,24.0,0.,24.0
1981-08-25 13:56:35.260 ,3,0,0.,24.0,0.,24.0,0.,24.0,0.,24.0
1981-08-25 13:56:59.260 ,4,1,0.,24.0,0.,24.0,0.,24.0,0.,24.0
1981-08-25 13:57:23.260 ,4,0,0.,24.0,0.,24.0,0.,24.0,0.,24.0
1981-08-25 13:57:47.260 ,5,1,0.,24.0,0.,24.0,0.,24.0,0.,24.0
1981-08-25 13:58:11.260 ,5,0,0.,24.0,0.,24.0,0.,24.0,0.,24.0
1981-08-25 13:58:35.260 ,6,1,0.,24.0,0.,24.0,0.,24.0,0.,24.0
1981-08-25 13:58:59.260 ,6,0,0.,24.0,0.,24.0,0.,24.0,0.,24.0
1981-08-25 13:59:23.260 ,7,1,13.,24.0,0.,24.0,0.,24.0,0.,24.0
1981-08-25 13:59:47.260 ,7,0,34.,24.0,0.,24.0,0.,24.0,0.,24.0
1981-08-25 14:00:11.260 ,7,1,30.,24.0,0.,24.0,0.,24.0,0.,24.0
1981-08-25 14:00:35.260 ,7,0,28.,24.0,0.,24.0,0.,24.0,0.,24.0
1981-08-25 14:00:59.260 ,6,1,25.,24.0,0.,24.0,0.,24.0,0.,24.0
1981-08-25 14:01:23.260 ,6,0,0.,24.0,0.,24.0,0.,24.0,0.,24.0
1981-08-25 14:01:47.260 ,5,1,0.,24.0,0.,24.0,0.,24.0,0.,24.0
1981-08-25 14:02:11.260 ,0,0,0.,24.0,0.,24.0,0.,24.0,0.,24.0
1981-08-25 14:02:55.660 ,0,0,,0,,0,,0,,0
1981-08-25 14:02:59.260 ,0,0,0.,24.0,0.,24.0,0.,24.0,0.,24.0
1981-08-25 14:03:23.260 ,3,1,1.,24.0,0.,24.0,0.,24.0,0.,24.0
1981-08-25 14:03:47.260 ,3,0,0.,24.0,0.,24.0,0.,24.0,0.,24.0
1981-08-25 14:04:11.260 ,2,1,0.,24.0,0.,24.0,0.,24.0,0.,24.0
1981-08-25 14:04:35.260 ,2,0,0.,24.0,0.,24.0,0.,24.0,0.,24.0
1981-08-25 14:04:59.260 ,1,1,0.,24.0,0.,24.0,0.,24.0,0.,24.0
1981-08-25 14:05:23.260 ,1,0,0.,24.0,0.,24.0,0.,24.0,0.,24.0
1981-08-25 14:05:47.260 ,0,1,0.,24.0,0.,24.0,0.,24.0,0.,24.0
1981-08-25 14:06:11.260 ,0,0,0.,24.0,0.,24.0,0.,24.0,0.,24.0
1981-08-25 14:06:35.260 ,0,1,0.,24.0,1.,24.0,0.,24.0,0.,24.0
1981-08-25 14:06:59.260 ,0,0,0.,24.0,0.,24.0,0.,24.0,0.,24.0
1981-08-25 14:07:23.260 ,1,1,0.,24.0,0.,24.0,0.,24.0,0.,24.0
1981-08-25 14:07:47.260 ,1,0,0.,24.0,0.,24.0,0.,24.0,0.,24.0
1981-08-25 14:08:11.260 ,2,1,0.,24.0,0.,24.0,0.,24.0,0.,24.0
1981-08-25 14:08:35.260 ,2,0,0.,24.0,0.,24.0,0.,24.0,0.,24.0
1981-08-25 14:08:59.260 ,3,1,0.,24.0,0.,24.0,0.,24.0,0.,24.0
1981-08-25 14:09:23.260 ,3,0,1.,24.0,0.,24.0,0.,24.0,0.,24.0
1981-08-25 14:09:47.260 ,4,1,0.,24.0,0.,24.0,0.,24.0,0.,24.0
1981-08-25 14:10:11.260 ,4,0,0.,24.0,0.,24.0,0.,24.0,0.,24.0
1981-08-25 14:11:23.260 ,0,0,0.,24.0,0.,24.0,0.,24.0,0.,24.0
1981-08-25 14:11:47.260 ,0,0,0.,24.0,0.,24.0,0.,24.0,0.,24.0
1981-08-25 14:12:11.260 ,7,1,10.,24.0,1.,24.0,0.,24.0,0.,24.0
1981-08-25 14:12:35.260 ,7,0,30.,24.0,0.,24.0,0.,24.0,0.,24.0
1981-08-25 14:12:59.260 ,7,1,42.,24.0,0.,24.0,0.,24.0,0.,24.0
1981-08-25 14:13:23.260 ,7,0,31.,24.0,0.,24.0,0.,24.0,0.,24.0
1981-08-25 14:13:47.260 ,6,1,20.,24.0,0.,24.0,0.,24.0,0.,24.0
1981-08-25 14:14:11.260 ,6,0,0.,24.0,0.,24.0,0.,24.0,0.,24.0
1981-08-25 14:14:35.260 ,5,1,0.,24.0,1.,24.0,0.,24.0,0.,24.0
1981-08-25 14:14:59.260 ,5,0,0.,24.0,0.,24.0,0.,24.0,0.,24.0
1981-08-25 14:15:23.260 ,4,1,0.,24.0,0.,24.0,0.,24.0,0.,24.0
1981-08-25 14:15:47.260 ,4,0,0.,24.0,0.,24.0,0.,24.0,0.,24.0
1981-08-25 14:16:11.260 ,3,1,0.,24.0,0.,24.0,0.,24.0,0.,24.0
1981-08-25 14:16:35.260 ,3,0,0.,24.0,0.,24.0,0.,24.0,0.,24.0
1981-08-25 14:16:59.260 ,2,1,0.,24.0,0.,24.0,0.,24.0,0.,24.0
1981-08-25 14:17:23.260 ,2,0,0.,24.0,0.,24.0,0.,24.0,0.,24.0
1981-08-25 14:17:47.260 ,1,1,1.,24.0,0.,24.0,0.,24.0,0.,24.0
1981-08-25 14:18:11.260 ,1,0,0.,24.0,0.,24.0,0.,24.0,0.,24.0
1981-08-25 14:18:35.260 ,0,1,0.,24.0,0.,24.0,0.,24.0,0.,24.0
1981-08-25 14:18:59.260 ,0,0,0.,24.0,0.,24.0,0.,24.0,0.,24.0
1981-08-25 14:19:23.260 ,0,1,0.,24.0,2.,24.0,0.,24.0,0.,24.0
1981-08-25 14:19:47.260 ,0,0,0.,24.0,0.,24.0,0.,24.0,0.,24.0
1981-08-25 14:20:11.260 ,1,1,0.,24.0,0.,24.0,0.,24.0,0.,24.0
1981-08-25 14:20:35.260 ,1,0,0.,24.0,0.,24.0,0.,24.0,0.,24.0
1981-08-25 14:20:59.260 ,2,1,0.,24.0,0.,24.0,0.,24.0,0.,24.0
1981-08-25 14:21:23.260 ,2,0,0.,24.0,0.,24.0,0.,24.0,0.,24.0
1981-08-25 14:21:47.260 ,3,1,0.,24.0,0.,24.0,0.,24.0,0.,24.0
1981-08-25 14:22:11.260 ,3,0,0.,24.0,0.,24.0,0.,24.0,0.,24.0
1981-08-25 14:22:35.260 ,4,1,0.,24.0,0.,24.0,0.,24.0,0.,24.0
1981-08-25 14:22:59.260 ,4,0,0.,24.0,0.,24.0,0.,24.0,0.,24.0
1981-08-25 14:23:23.260 ,5,1,0.,24.0,0.,24.0,0.,24.0,0.,24.0
1981-08-25 14:23:47.260 ,5,0,0.,24.0,0.,24.0,0.,24.0,0.,24.0
1981-08-25 14:24:11.260 ,6,1,0.,24.0,0.,24.0,0.,24.0,0.,24.0
1981-08-25 14:24:35.260 ,6,0,0.,24.0,0.,24.0,0.,24.0,0.,24.0
1981-08-25 14:24:59.260 ,7,1,6.,24.0,0.,24.0,0.,24.0,0.,24.0
1981-08-25 14:25:23.260 ,7,0,27.,24.0,0.,24.0,0.,24.0,0.,24.0
1981-08-25 14:25:47.260 ,7,1,30.,24.0,0.,24.0,0.,24.0,0.,24.0
1981-08-25 14:26:11.260 ,7,0,42.,24.0,0.,24.0,0.,24.0,0.,24.0
1981-08-25 14:26:35.260 ,6,1,18.,24.0,0.,24.0,0.,24.0,0.,24.0
1981-08-25 14:26:59.260 ,6,0,0.,24.0,0.,24.0,0.,24.0,0.,24.0
1981-08-25 14:27:23.260 ,5,1,0.,24.0,0.,24.0,0.,24.0,0.,24.0
1981-08-25 14:27:47.260 ,5,0,0.,24.0,0.,24.0,0.,24.0,0.,24.0
1981-08-25 14:28:11.260 ,4,1,0.,24.0,0.,24.0,0.,24.0,0.,24.0
1981-08-25 14:28:35.260 ,4,0,0.,24.0,0.,24.0,0.,24.0,0.,24.0
1981-08-25 14:28:59.260 ,3,1,1.,24.0,1.,24.0,0.,24.0,0.,24.0
1981-08-25 14:29:23.260 ,3,0,0.,24.0,0.,24.0,0.,24.0,0.,24.0
1981-08-25 14:29:47.260 ,2,1,0.,24.0,0.,24.0,0.,24.0,0.,24.0
1981-08-25 14:30:11.260 ,2,0,0.,24.0,0.,24.0,0.,24.0,0.,24.0
1981-08-25 14:30:35.260 ,1,1,0.,24.0,0.,24.0,0.,24.0,0.,24.0
1981-08-25 14:30:59.260 ,1,0,0.,24.0,0.,24.0,0.,24.0,0.,24.0
1981-08-25 14:31:23.260 ,0,1,1.,24.0,0.,24.0,0.,24.0,0.,24.0
1981-08-25 14:31:47.260 ,0,0,0.,24.0,0.,24.0,0.,24.0,0.,24.0
1981-08-25 14:32:11.260 ,0,1,0.,24.0,0.,24.0,0.,24.0,0.,24.0
1981-08-25 14:32:35.260 ,0,0,0.,24.0,0.,24.0,0.,24.0,0.,24.0
1981-08-25 14:32:59.260 ,1,1,1.,24.0,0.,24.0,0.,24.0,0.,24.0
1981-08-25 14:33:23.260 ,1,0,0.,24.0,0.,24.0,0.,24.0,0.,24.0
1981-08-25 14:33:47.260 ,2,1,0.,24.0,0.,24.0,0.,24.0,0.,24.0
1981-08-25 14:34:11.260 ,2,0,0.,24.0,0.,24.0,0.,24.0,0.,24.0
1981-08-25 14:34:35.260 ,3,1,0.,24.0,0.,24.0,0.,24.0,0.,24.0
1981-08-25 14:34:59.260 ,3,0,0.,24.0,1.,24.0,0.,24.0,0.,24.0
1981-08-25 14:35:23.260 ,4,1,0.,24.0,0.,24.0,0.,24.0,0.,24.0
1981-08-25 14:35:47.260 ,4,0,0.,24.0,0.,24.0,0.,24.0,0.,24.0